| time (UTC) | temp F | wind direction | speed MPH | gust MPH | rain 1hr in | rain 24hr in | rain mn in | humidity % | barometer mb |
| 20260906010045 | 52 | 255 | 0.0 | 1.0 | 0.00 | 0.00 | 0.00 | 85 | 1021.8 |
| 20260906004536 | 52 | 257 | 0.0 | 1.0 | 0.00 | 0.00 | 0.00 | 82 | 1021.8 |
| 20260906003044 | 52 | 254 | 0.0 | 2.0 | 0.00 | 0.00 | 0.00 | 83 | 1021.8 |
| 20260906001543 | 53 | 264 | 0.0 | 3.0 | 0.00 | 0.00 | 0.00 | 82 | 1022.0 |
| 20260906000043 | 53 | 243 | 1.0 | 4.0 | 0.00 | 0.00 | 0.00 | 80 | 1021.7 |
| 20260905234546 | 54 | 240 | 0.0 | 1.0 | 0.00 | 0.00 | 0.00 | 80 | 1022.0 |
| 20260905233044 | 54 | 185 | 0.0 | 1.0 | 0.00 | 0.00 | 0.00 | 80 | 1021.9 |
| 20260905231542 | 54 | 161 | 0.0 | 2.0 | 0.00 | 0.00 | 0.00 | 79 | 1022.0 |
| 20260905230047 | 54 | 222 | 0.0 | 2.0 | 0.00 | 0.00 | 0.00 | 75 | 1022.1 |
| 20260905224608 | 55 | 129 | 1.0 | 2.0 | 0.00 | 0.00 | 0.00 | 79 | 1022.2 |
| 20260905223044 | 56 | 153 | 1.0 | 5.0 | 0.00 | 0.00 | 0.00 | 76 | 1022.6 |
| 20260905221540 | 56 | 217 | 1.0 | 4.0 | 0.00 | 0.00 | 0.00 | 74 | 1022.4 |
| 20260905220045 | 56 | 130 | 1.0 | 5.0 | 0.00 | 0.00 | 0.00 | 75 | 1022.3 |
| 20260905214548 | 55 | 220 | 1.0 | 2.0 | 0.00 | 0.00 | 0.00 | 75 | 1022.3 |
| 20260905213050 | 54 | 144 | 2.0 | 4.0 | 0.00 | 0.00 | 0.00 | 75 | 1022.4 |
| 20260905211548 | 54 | 191 | 0.0 | 2.0 | 0.00 | 0.00 | 0.00 | 76 | 1022.4 |
| 20260905210058 | 55 | 146 | 0.0 | 5.0 | 0.00 | 0.00 | 0.00 | 74 | 1022.2 |
| 20260905204546 | 57 | 227 | 1.0 | 4.0 | 0.00 | 0.00 | 0.00 | 70 | 1022.2 |
| 20260905203043 | 57 | 107 | 1.0 | 4.0 | 0.00 | 0.00 | 0.00 | 68 | 1022.0 |
| 20260905201552 | 59 | 196 | 1.0 | 5.0 | 0.00 | 0.00 | 0.00 | 63 | 1022.2 |
| 20260905200049 | 59 | 288 | 1.0 | 3.0 | 0.00 | 0.00 | 0.00 | 63 | 1022.2 |
| 20260905194548 | 61 | 205 | 2.0 | 4.0 | 0.00 | 0.00 | 0.00 | 55 | 1022.1 |
| 20260905193048 | 60 | 193 | 3.0 | 8.0 | 0.00 | 0.00 | 0.00 | 57 | 1022.1 |
| 20260905191548 | 59 | 262 | 2.0 | 7.0 | 0.00 | 0.00 | 0.00 | 59 | 1022.3 |
| 20260905190045 | 60 | 235 | 1.0 | 9.0 | 0.00 | 0.00 | 0.00 | 57 | 1022.1 |
| 20260905184556 | 60 | 250 | 2.0 | 9.0 | 0.00 | 0.00 | 0.00 | 59 | 1022.3 |
| 20260905183051 | 60 | 144 | 1.0 | 7.0 | 0.00 | 0.00 | 0.00 | 60 | 1022.3 |
| 20260905181553 | 58 | 219 | 1.0 | 3.0 | 0.00 | 0.00 | 0.00 | 62 | 1022.3 |
| 20260905180058 | 57 | 167 | 1.0 | 3.0 | 0.00 | 0.00 | 0.00 | 63 | 1022.2 |
| 20260905174543 | 58 | 184 | 1.0 | 4.0 | 0.00 | 0.00 | 0.00 | 60 | 1022.3 |
| 20260905173106 | 59 | 191 | 1.0 | 5.0 | 0.00 | 0.00 | 0.00 | 59 | 1022.2 |
| 20260905171549 | 58 | 204 | 1.0 | 4.0 | 0.00 | 0.00 | 0.00 | 63 | 1022.1 |
| 20260905170100 | 55 | 214 | 2.0 | 6.0 | 0.00 | 0.00 | 0.00 | 64 | 1022.2 |
| 20260905164603 | 55 | 160 | 1.0 | 4.0 | 0.00 | 0.00 | 0.00 | 64 | 1022.3 |
| 20260905163050 | 56 | 234 | 2.0 | 5.0 | 0.00 | 0.00 | 0.00 | 63 | 1022.1 |
| 20260905161602 | 54 | 300 | 1.0 | 3.0 | 0.00 | 0.00 | 0.00 | 68 | 1022.0 |
| 20260905160055 | 52 | 295 | 1.0 | 3.0 | 0.00 | 0.00 | 0.00 | 70 | 1022.2 |
| 20260905154547 | 52 | 265 | 0.0 | 3.0 | 0.00 | 0.00 | 0.00 | 80 | 1022.1 |
| 20260905153047 | 50 | 336 | 0.0 | 3.0 | 0.00 | 0.00 | 0.00 | 76 | 1022.1 |
| 20260905151558 | 47 | 99 | 0.0 | 2.0 | 0.00 | 0.00 | 0.00 | 93 | 1021.9 |
| 20260905150059 | 45 | 22 | 0.0 | 1.0 | 0.00 | 0.00 | 0.00 | 95 | 1021.7 |
| 20260905144550 | 44 | 22 | 0.0 | 1.0 | 0.00 | 0.00 | 0.00 | 93 | 1021.9 |
| 20260905143104 | 43 | 24 | 0.0 | 2.0 | 0.00 | 0.00 | 0.00 | 93 | 1021.9 |
| 20260905141546 | 43 | 16 | 0.0 | 2.0 | 0.00 | 0.00 | 0.00 | 92 | 1021.8 |
| 20260905140055 | 43 | 11 | 0.0 | 3.0 | 0.00 | 0.00 | 0.00 | 91 | 1021.6 |
| 20260905134553 | 42 | 46 | 1.0 | 2.0 | 0.00 | 0.00 | 0.00 | 92 | 1021.6 |
| 20260905133047 | 42 | 19 | 0.0 | 2.0 | 0.00 | 0.00 | 0.00 | 92 | 1021.6 |
| 20260905131556 | 42 | 21 | 0.0 | 2.0 | 0.00 | 0.00 | 0.00 | 93 | 1021.6 |
| 20260905130053 | 42 | 352 | 1.0 | 3.0 | 0.00 | 0.00 | 0.00 | 93 | 1021.7 |
| 20260905124546 | 42 | 325 | 1.0 | 3.0 | 0.00 | 0.00 | 0.00 | 94 | 1021.5 |
| 20260905123102 | 42 | 20 | 0.0 | 1.0 | 0.00 | 0.00 | 0.00 | 95 | 1021.5 |
| 20260905121555 | 42 | 20 | 0.0 | 2.0 | 0.00 | 0.00 | 0.00 | 94 | 1021.5 |
| 20260905114600 | 41 | 24 | 0.0 | 2.0 | 0.00 | 0.00 | 0.00 | 95 | 1021.7 |
| 20260905113046 | 41 | 35 | 0.0 | 2.0 | 0.00 | 0.00 | 0.00 | 95 | 1021.5 |
| 20260905111545 | 41 | 38 | 0.0 | 3.0 | 0.00 | 0.00 | 0.00 | 96 | 1021.5 |
| 20260905110059 | 39 | 28 | 1.0 | 2.0 | 0.00 | 0.00 | 0.00 | 96 | 1021.4 |
| 20260905104606 | 39 | 22 | 0.0 | 2.0 | 0.00 | 0.00 | 0.00 | 95 | 1021.4 |
| 20260905103052 | 39 | 22 | 0.0 | 2.0 | 0.00 | 0.00 | 0.00 | 95 | 1021.5 |
| 20260905101559 | 40 | 22 | 1.0 | 2.0 | 0.00 | 0.00 | 0.00 | 96 | 1021.4 |
| 20260905100121 | 40 | 22 | 0.0 | 2.0 | 0.00 | 0.00 | 0.00 | 96 | 1021.4 |
| 20260905094551 | 40 | 22 | 0.0 | 2.0 | 0.00 | 0.00 | 0.00 | 96 | 1021.3 |
| 20260905093051 | 40 | 22 | 0.0 | 2.0 | 0.00 | 0.00 | 0.00 | 96 | 1021.3 |
| 20260905091612 | 40 | 36 | 0.0 | 2.0 | 0.00 | 0.00 | 0.00 | 95 | 1021.3 |
| 20260905090057 | 40 | 321 | 1.0 | 3.0 | 0.00 | 0.00 | 0.00 | 95 | 1021.2 |
| 20260905084553 | 40 | 9 | 0.0 | 2.0 | 0.00 | 0.01 | 0.00 | 95 | 1021.0 |
| 20260905083114 | 40 | 15 | 0.0 | 2.0 | 0.00 | 0.01 | 0.00 | 95 | 1021.2 |
| 20260905081603 | 40 | 21 | 0.0 | 2.0 | 0.00 | 0.01 | 0.00 | 96 | 1021.2 |
| 20260905080048 | 40 | 21 | 0.0 | 2.0 | 0.00 | 0.01 | 0.00 | 95 | 1021.2 |
| 20260905074558 | 40 | 9 | 0.0 | 2.0 | 0.00 | 0.01 | 0.00 | 95 | 1021.2 |
| 20260905073058 | 41 | 9 | 0.0 | 2.0 | 0.00 | 0.01 | 0.00 | 94 | 1021.1 |
| 20260905071551 | 41 | 5 | 0.0 | 2.0 | 0.00 | 0.01 | 0.00 | 94 | 1021.2 |
| 20260905070053 | 42 | 19 | 0.0 | 2.0 | 0.00 | 0.01 | 0.00 | 94 | 1021.1 |
| 20260905064619 | 42 | 22 | 1.0 | 3.0 | 0.00 | 0.01 | 0.01 | 95 | 1021.1 |
| 20260905063055 | 42 | 22 | 0.0 | 2.0 | 0.00 | 0.01 | 0.01 | 95 | 1021.0 |
| 20260905061608 | 42 | 15 | 0.0 | 2.0 | 0.00 | 0.01 | 0.01 | 94 | 1020.8 |
| 20260905060043 | 42 | 11 | 0.0 | 2.0 | 0.00 | 0.01 | 0.01 | 94 | 1020.9 |
| 20260905054602 | 43 | 350 | 0.0 | 2.0 | 0.00 | 0.01 | 0.01 | 94 | 1020.9 |
| 20260905053043 | 42 | 273 | 1.0 | 3.0 | 0.00 | 0.01 | 0.01 | 94 | 1020.9 |
| 20260905051540 | 42 | 5 | 0.0 | 2.0 | 0.00 | 0.01 | 0.01 | 94 | 1020.9 |
| 20260905050041 | 42 | 352 | 0.0 | 2.0 | 0.00 | 0.01 | 0.01 | 93 | 1020.8 |
| 20260905044539 | 43 | 343 | 0.0 | 1.0 | 0.00 | 0.01 | 0.01 | 92 | 1021.0 |
| 20260905043037 | 44 | 343 | 0.0 | 1.0 | 0.00 | 0.01 | 0.01 | 92 | 1020.8 |
| 20260905041542 | 45 | 342 | 0.0 | 3.0 | 0.00 | 0.01 | 0.01 | 91 | 1020.9 |
| 20260905040056 | 45 | 228 | 0.0 | 1.0 | 0.00 | 0.01 | 0.01 | 92 | 1021.1 |
| 20260905034550 | 45 | 79 | 0.0 | 1.0 | 0.00 | 0.02 | 0.01 | 93 | 1021.1 |
| 20260905033047 | 45 | 79 | 0.0 | 1.0 | 0.00 | 0.02 | 0.01 | 92 | 1020.9 |
| 20260905031548 | 45 | 79 | 0.0 | 1.0 | 0.00 | 0.02 | 0.01 | 90 | 1020.7 |
| 20260905030045 | 46 | 79 | 0.0 | 1.0 | 0.00 | 0.02 | 0.01 | 90 | 1020.6 |
| 20260905024554 | 46 | 79 | 0.0 | 0.0 | 0.00 | 0.04 | 0.01 | 89 | 1020.4 |
| 20260905023040 | 47 | 79 | 0.0 | 1.0 | 0.00 | 0.04 | 0.01 | 88 | 1020.3 |
| 20260905021539 | 48 | 80 | 0.0 | 1.0 | 0.00 | 0.04 | 0.01 | 87 | 1020.6 |
| 20260905020051 | 49 | 80 | 0.0 | 1.0 | 0.00 | 0.04 | 0.01 | 86 | 1020.5 |
| 20260905014543 | 49 | 80 | 0.0 | 0.0 | 0.00 | 0.06 | 0.01 | 85 | 1020.3 |
| 20260905013046 | 50 | 80 | 0.0 | 0.0 | 0.00 | 0.06 | 0.01 | 85 | 1020.2 |
| 20260905011542 | 50 | 80 | 0.0 | 0.0 | 0.00 | 0.06 | 0.01 | 84 | 1020.2 |